Simultaneous Nadir Overpasses (SNOs) Predictions

Prediction of SNOs between AQUA and NPP Satellite Orbit:

Table of predicted SNOs for the next 14.0 days since TLE Epoch: 9/14/2024
Index Date (AQUA) Time (AQUA) Lat,Lon (AQUA) SZA (AQUA ) Date (NPP) Time (NPP) Lat,Lon (NPP) SZA (NPP ) Distance(km) Time Diff (sec)
1 09/14/2024 06:13:05 -81.28,-167.02 95.78 09/14/2024 06:12:30 -81.29,-166.84 95.78 3.14 35
2 09/14/2024 07:02:25 81.30, 0.99 84.19 09/14/2024 07:03:13 81.30, 1.05 84.16 1.13 48
3 09/16/2024 18:15:29 81.29,-167.44 85.12 09/16/2024 18:15:35 81.29,-167.40 85.11 0.72 6
4 09/19/2024 05:28:27 81.29, 24.33 86.03 09/19/2024 05:27:55 81.29, 24.36 86.05 0.58 32
5 09/19/2024 06:17:48 -81.29,-168.02 93.96 09/19/2024 06:18:40 -81.29,-168.16 93.97 2.37 52
6 09/21/2024 16:41:22 81.28,-144.09 86.97 09/21/2024 16:40:16 81.28,-144.07 87.01 0.83 66
7 09/21/2024 17:30:42 -81.30, 23.95 93.07 09/21/2024 17:31:00 -81.29, 23.82 93.06 2.36 18
8 09/24/2024 04:43:32 -81.29,-144.26 92.15 09/24/2024 04:43:20 -81.29,-144.40 92.12 2.41 12
9 09/24/2024 05:32:52 81.30, 23.54 87.85 09/24/2024 05:34:03 81.30, 23.40 87.83 2.43 71
10 09/26/2024 15:56:18 -81.28, 47.35 91.20 09/26/2024 15:55:40 -81.29, 47.19 91.16 2.60 38



Historial Predications of SNOs between AQUA and NPP
